ACA414 CYYZ-CYUL

Flight info

Callsign ACA414
Flight time N/A
Altitude 39000
Route DEDKI5 MIGLO HABBS7
Aircraft B789/H-SDE1E2E3FGHIJ2J3J4J5M1RWXY/LB1D1

Departure

Time 2026-05-04 19:51
Airport Toronto Pearson International Airport (CYYZ)

Arrival

Time N/A
Airport Montreal / Pierre Elliott Trudeau International Airport (CYUL)
Time Latitude Longitude Altitude Speed Heading
2026-05-04 19:31 43.67717 -79.60981 567 ft 0 kts 245°
2026-05-04 19:35 43.67718 -79.60981 567 ft 1 kts 245°
2026-05-04 19:35 43.67728 -79.60950 576 ft 4 kts 245°
2026-05-04 19:35 43.67740 -79.60916 574 ft 4 kts 244°
2026-05-04 19:36 43.67749 -79.60889 573 ft 4 kts 255°
2026-05-04 19:36 43.67748 -79.60857 574 ft 4 kts 304°
2026-05-04 19:36 43.67735 -79.60837 574 ft 0 kts 320°
2026-05-04 19:39 43.67738 -79.60840 567 ft 1 kts 317°
2026-05-04 19:39 43.67749 -79.60856 573 ft 3 kts 315°
2026-05-04 19:39 43.67785 -79.60889 576 ft 4 kts 347°
2026-05-04 19:39 43.67795 -79.60885 570 ft 3 kts 12°
2026-05-04 19:40 43.67829 -79.60850 570 ft 9 kts 63°
2026-05-04 19:40 43.67783 -79.60761 572 ft 14 kts 144°
2026-05-04 19:40 43.67705 -79.60689 570 ft 11 kts 178°
2026-05-04 19:40 43.67659 -79.60746 574 ft 10 kts 233°
2026-05-04 19:41 43.67601 -79.60833 576 ft 14 kts 226°
2026-05-04 19:41 43.67539 -79.60928 575 ft 13 kts 232°
2026-05-04 19:41 43.67498 -79.61033 573 ft 12 kts 249°
2026-05-04 19:41 43.67488 -79.61068 571 ft 0 kts 249°
2026-05-04 19:44 43.67488 -79.61069 571 ft 0 kts 249°
2026-05-04 19:44 43.67481 -79.61124 569 ft 10 kts 262°
2026-05-04 19:44 43.67486 -79.61222 572 ft 10 kts 280°
2026-05-04 19:45 43.67501 -79.61319 570 ft 10 kts 285°
2026-05-04 19:45 43.67534 -79.61407 571 ft 10 kts 309°
2026-05-04 19:45 43.67613 -79.61528 575 ft 19 kts 313°
2026-05-04 19:45 43.67703 -79.61657 573 ft 19 kts 316°
2026-05-04 19:46 43.67799 -79.61779 571 ft 19 kts 319°
2026-05-04 19:46 43.67906 -79.61888 575 ft 19 kts 336°
2026-05-04 19:46 43.67981 -79.62009 568 ft 15 kts 256°
2026-05-04 19:46 43.67986 -79.62118 571 ft 10 kts 308°
2026-05-04 19:47 43.68038 -79.62190 570 ft 11 kts 319°
2026-05-04 19:47 43.68118 -79.62292 574 ft 22 kts 316°
2026-05-04 19:47 43.68240 -79.62450 573 ft 27 kts 321°
2026-05-04 19:47 43.68390 -79.62633 570 ft 30 kts 313°
2026-05-04 19:48 43.68541 -79.62831 573 ft 32 kts 317°
2026-05-04 19:48 43.68716 -79.63062 573 ft 37 kts 316°
2026-05-04 19:48 43.68913 -79.63303 574 ft 37 kts 316°
2026-05-04 19:48 43.69054 -79.63499 577 ft 20 kts 318°
2026-05-04 19:49 43.69146 -79.63496 578 ft 13 kts 47°
2026-05-04 19:49 43.69198 -79.63437 575 ft 17 kts 27°
2026-05-04 19:49 43.69301 -79.63422 571 ft 4 kts 355°
2026-05-04 19:49 43.69357 -79.63436 573 ft 12 kts 344°
2026-05-04 19:50 43.69418 -79.63497 572 ft 6 kts 264°
2026-05-04 19:50 43.69367 -79.63573 573 ft 27 kts 226°
2026-05-04 19:50 43.69085 -79.63982 578 ft 91 kts 226°
2026-05-04 19:50 43.68499 -79.64825 593 ft 147 kts 225°
2026-05-04 19:51 43.67799 -79.65911 1258 ft 154 kts 230°
2026-05-04 19:51 43.67311 -79.66620 1880 ft 153 kts 226°
2026-05-04 19:51 43.66568 -79.67527 2957 ft 140 kts 217°
2026-05-04 19:51 43.65130 -79.67728 3736 ft 172 kts 180°
2026-05-04 19:52 43.63952 -79.66875 4192 ft 219 kts 144°
2026-05-04 19:52 43.63211 -79.64804 4596 ft 270 kts 101°
2026-05-04 19:52 43.63268 -79.62083 5230 ft 299 kts 84°
2026-05-04 19:52 43.63495 -79.60170 5827 ft 307 kts 82°
2026-05-04 19:53 43.63835 -79.57255 6957 ft 309 kts 84°
2026-05-04 19:53 43.64043 -79.54289 8024 ft 313 kts 88°
2026-05-04 19:53 43.64240 -79.50275 9472 ft 319 kts 86°
2026-05-04 19:53 43.64439 -79.47205 10409 ft 326 kts 85°
2026-05-04 19:54 43.64662 -79.43954 10826 ft 353 kts 85°
2026-05-04 19:54 43.64887 -79.40467 11302 ft 374 kts 86°
2026-05-04 19:54 43.65033 -79.38094 12039 ft 374 kts 86°
2026-05-04 19:54 43.65256 -79.34496 13048 ft 379 kts 85°
2026-05-04 19:55 43.65485 -79.30889 13685 ft 374 kts 85°
2026-05-04 19:55 43.65714 -79.27242 13826 ft 387 kts 85°
2026-05-04 19:55 43.65944 -79.23540 14239 ft 391 kts 85°
2026-05-04 19:55 43.66174 -79.19793 15177 ft 392 kts 85°
2026-05-04 19:56 43.66407 -79.16010 15959 ft 400 kts 85°
2026-05-04 19:56 43.66643 -79.12159 16778 ft 406 kts 85°
2026-05-04 19:56 43.66881 -79.08245 17580 ft 412 kts 85°
2026-05-04 19:56 43.67117 -79.04326 18302 ft 418 kts 85°
2026-05-04 19:57 43.67359 -79.00298 18988 ft 424 kts 85°
2026-05-04 19:57 43.67603 -78.96216 19670 ft 429 kts 85°
2026-05-04 19:57 43.67848 -78.92087 20331 ft 434 kts 84°
2026-05-04 19:57 43.68095 -78.87912 20972 ft 439 kts 84°
2026-05-04 19:58 43.68343 -78.83684 21615 ft 444 kts 84°
2026-05-04 19:58 43.68592 -78.79405 22229 ft 449 kts 84°
2026-05-04 19:58 43.68844 -78.75081 22841 ft 454 kts 83°
2026-05-04 19:58 43.69443 -78.70802 23389 ft 455 kts 69°
2026-05-04 19:59 43.70583 -78.66797 23906 ft 455 kts 63°
2026-05-04 19:59 43.71815 -78.62775 24473 ft 456 kts 63°
2026-05-04 19:59 43.73072 -78.58720 24986 ft 459 kts 63°
2026-05-04 19:59 43.74330 -78.54643 25495 ft 462 kts 63°
2026-05-04 20:00 43.75584 -78.50544 25971 ft 465 kts 63°
2026-05-04 20:00 43.76846 -78.46409 26488 ft 468 kts 63°
2026-05-04 20:00 43.78120 -78.42251 26959 ft 471 kts 63°
2026-05-04 20:00 43.79399 -78.38067 27443 ft 473 kts 63°
2026-05-04 20:01 43.80683 -78.33854 27908 ft 476 kts 63°
2026-05-04 20:01 43.81954 -78.29671 28365 ft 479 kts 63°
2026-05-04 20:01 43.83252 -78.25401 28755 ft 483 kts 63°
2026-05-04 20:01 43.84557 -78.21100 29197 ft 486 kts 63°
2026-05-04 20:02 43.85867 -78.16772 29627 ft 488 kts 63°
2026-05-04 20:02 43.87183 -78.12418 30001 ft 491 kts 63°
2026-05-04 20:02 43.88504 -78.08040 30376 ft 493 kts 63°
2026-05-04 20:02 43.89828 -78.03645 30737 ft 495 kts 63°
2026-05-04 20:03 43.91155 -77.99231 31092 ft 497 kts 62°
2026-05-04 20:03 43.92469 -77.94854 31443 ft 499 kts 62°
2026-05-04 20:03 43.93801 -77.90407 31858 ft 499 kts 62°
2026-05-04 20:03 43.95133 -77.85956 32168 ft 502 kts 62°
2026-05-04 20:04 43.96472 -77.81474 32512 ft 503 kts 62°
2026-05-04 20:04 43.97816 -77.76968 32779 ft 507 kts 62°
2026-05-04 20:04 43.99163 -77.72440 33127 ft 508 kts 62°
2026-05-04 20:04 44.00514 -77.67889 33424 ft 510 kts 62°
2026-05-04 20:05 44.01869 -77.63324 33719 ft 512 kts 62°
2026-05-04 20:05 44.03226 -77.58738 33971 ft 514 kts 62°
2026-05-04 20:05 44.04567 -77.54197 34267 ft 515 kts 62°
2026-05-04 20:05 44.05929 -77.49579 34486 ft 518 kts 62°
2026-05-04 20:06 44.07297 -77.44962 34816 ft 516 kts 60°
2026-05-04 20:06 44.09002 -77.40632 35121 ft 507 kts 51°
2026-05-04 20:06 44.10915 -77.36492 35409 ft 508 kts 51°
2026-05-04 20:06 44.12837 -77.32384 35716 ft 507 kts 51°
2026-05-04 20:07 44.14765 -77.28256 36014 ft 508 kts 51°
2026-05-04 20:07 44.16674 -77.24128 36304 ft 508 kts 51°
2026-05-04 20:07 44.18584 -77.19987 36662 ft 507 kts 51°
2026-05-04 20:07 44.20467 -77.15916 37000 ft 506 kts 51°
2026-05-04 20:08 44.22378 -77.11790 37289 ft 507 kts 51°
2026-05-04 20:08 44.24285 -77.07654 37580 ft 507 kts 51°
2026-05-04 20:08 44.26189 -77.03510 37881 ft 507 kts 52°
2026-05-04 20:08 44.28097 -76.99359 38115 ft 509 kts 52°
2026-05-04 20:09 44.30008 -76.95200 38399 ft 509 kts 52°
2026-05-04 20:09 44.31916 -76.91037 38608 ft 509 kts 52°
2026-05-04 20:09 44.33822 -76.86871 38737 ft 512 kts 52°
2026-05-04 20:10 44.37642 -76.78507 38731 ft 512 kts 52°
2026-05-04 20:10 44.41445 -76.70154 38751 ft 507 kts 52°
2026-05-04 20:11 44.45233 -76.61817 38735 ft 509 kts 52°
2026-05-04 20:11 44.49025 -76.53438 38731 ft 509 kts 52°
2026-05-04 20:12 44.52789 -76.45104 38721 ft 509 kts 52°
2026-05-04 20:12 44.56567 -76.36708 38724 ft 509 kts 52°
2026-05-04 20:13 44.60338 -76.28307 38719 ft 505 kts 52°
2026-05-04 20:13 44.62198 -76.24147 38238 ft 503 kts 52°
2026-05-04 20:13 44.63917 -76.19878 37827 ft 504 kts 62°
2026-05-04 20:13 44.65276 -76.15358 37374 ft 501 kts 62°
2026-05-04 20:14 44.66587 -76.10916 36986 ft 496 kts 62°
2026-05-04 20:14 44.67891 -76.06459 36584 ft 492 kts 62°
2026-05-04 20:14 44.69196 -76.02023 36181 ft 488 kts 61°
2026-05-04 20:14 44.70478 -75.97637 35797 ft 485 kts 64°
2026-05-04 20:15 44.71636 -75.93191 35387 ft 482 kts 63°
2026-05-04 20:15 44.72832 -75.88806 35006 ft 478 kts 62°
2026-05-04 20:15 44.74019 -75.84453 34642 ft 475 kts 62°
2026-05-04 20:15 44.75164 -75.80120 34321 ft 470 kts 63°
2026-05-04 20:16 44.76279 -75.75877 33962 ft 467 kts 62°
2026-05-04 20:16 44.77412 -75.71624 33570 ft 463 kts 62°
2026-05-04 20:16 44.78543 -75.67396 33116 ft 460 kts 62°
2026-05-04 20:16 44.79659 -75.63182 32657 ft 458 kts 62°
2026-05-04 20:17 44.80763 -75.58983 32203 ft 456 kts 63°
2026-05-04 20:17 44.81864 -75.54807 31764 ft 454 kts 63°
2026-05-04 20:17 44.82961 -75.50649 31325 ft 452 kts 63°
2026-05-04 20:17 44.84056 -75.46514 30893 ft 448 kts 61°
2026-05-04 20:18 44.85235 -75.42467 30445 ft 446 kts 62°
2026-05-04 20:18 44.86362 -75.38406 30050 ft 445 kts 63°
2026-05-04 20:18 44.87484 -75.34355 29611 ft 443 kts 62°
2026-05-04 20:18 44.88611 -75.30394 29178 ft 439 kts 62°
2026-05-04 20:19 44.89748 -75.26410 28745 ft 436 kts 62°
2026-05-04 20:19 44.90863 -75.22443 28323 ft 433 kts 63°
2026-05-04 20:19 44.91961 -75.18508 27917 ft 431 kts 63°
2026-05-04 20:19 44.93059 -75.14593 27497 ft 427 kts 63°
2026-05-04 20:20 44.94152 -75.10706 27095 ft 424 kts 63°
2026-05-04 20:20 44.95233 -75.06841 26696 ft 422 kts 63°
2026-05-04 20:20 44.96290 -75.03051 26292 ft 419 kts 63°
2026-05-04 20:20 44.97354 -74.99234 25912 ft 416 kts 64°
2026-05-04 20:21 44.98423 -74.95452 25535 ft 412 kts 60°
2026-05-04 20:21 44.99787 -74.91964 25022 ft 400 kts 54°
2026-05-04 20:21 45.02493 -74.85127 23381 ft 395 kts 56°
2026-05-04 20:22 45.03835 -74.81755 22530 ft 392 kts 56°
2026-05-04 20:22 45.05164 -74.78430 21893 ft 386 kts 56°
2026-05-04 20:22 45.06480 -74.75123 21247 ft 386 kts 56°
2026-05-04 20:22 45.07782 -74.71835 20890 ft 382 kts 56°
2026-05-04 20:23 45.09046 -74.68639 20016 ft 376 kts 56°
2026-05-04 20:23 45.10329 -74.65406 19041 ft 375 kts 57°
2026-05-04 20:23 45.11579 -74.62245 18643 ft 362 kts 56°
2026-05-04 20:23 45.12960 -74.59232 18252 ft 374 kts 53°
2026-05-04 20:24 45.14295 -74.56103 17757 ft 368 kts 56°
2026-05-04 20:24 45.15589 -74.52978 17530 ft 366 kts 54°
2026-05-04 20:24 45.16922 -74.49934 17141 ft 361 kts 53°
2026-05-04 20:24 45.18261 -74.46940 16710 ft 358 kts 53°
2026-05-04 20:25 45.19556 -74.43983 16283 ft 358 kts 54°
2026-05-04 20:25 45.20856 -74.40970 15860 ft 359 kts 54°
2026-05-04 20:25 45.22159 -74.37954 15435 ft 358 kts 54°
2026-05-04 20:25 45.23462 -74.34945 14999 ft 357 kts 54°
2026-05-04 20:26 45.24757 -74.31950 14578 ft 356 kts 54°
2026-05-04 20:26 45.26063 -74.28988 14013 ft 355 kts 51°
2026-05-04 20:26 45.27600 -74.26219 13303 ft 359 kts 45°
2026-05-04 20:26 45.29243 -74.23518 12520 ft 364 kts 45°
2026-05-04 20:27 45.30805 -74.20717 11902 ft 366 kts 49°
2026-05-04 20:27 45.32262 -74.17909 11481 ft 340 kts 49°
2026-05-04 20:27 45.33644 -74.15324 11155 ft 323 kts 46°
2026-05-04 20:27 45.35069 -74.12770 10873 ft 332 kts 46°
2026-05-04 20:28 45.36472 -74.10211 10565 ft 325 kts 47°
2026-05-04 20:28 45.37824 -74.07693 10410 ft 313 kts 47°
2026-05-04 20:28 45.39121 -74.05288 10260 ft 301 kts 46°
2026-05-04 20:28 45.40399 -74.02945 9998 ft 300 kts 46°
2026-05-04 20:29 45.41664 -74.00624 9744 ft 301 kts 46°
2026-05-04 20:29 45.42942 -73.98262 9488 ft 301 kts 46°
2026-05-04 20:29 45.44211 -73.95908 9227 ft 297 kts 46°
2026-05-04 20:29 45.45458 -73.93600 8959 ft 293 kts 45°
2026-05-04 20:30 45.46888 -73.91585 8632 ft 288 kts 34°
2026-05-04 20:30 45.48381 -73.89663 8254 ft 289 kts 37°
2026-05-04 20:30 45.49844 -73.87707 7873 ft 288 kts 37°
2026-05-04 20:30 45.51312 -73.85776 7494 ft 286 kts 37°
2026-05-04 20:31 45.52780 -73.83870 7123 ft 285 kts 37°
2026-05-04 20:31 45.54235 -73.81972 6750 ft 284 kts 38°
2026-05-04 20:31 45.55665 -73.80098 6386 ft 281 kts 38°
2026-05-04 20:31 45.57102 -73.78212 6010 ft 280 kts 38°
2026-05-04 20:32 45.58530 -73.76341 5634 ft 277 kts 39°
2026-05-04 20:32 45.59942 -73.74489 5272 ft 274 kts 39°
2026-05-04 20:32 45.61333 -73.72660 4897 ft 267 kts 39°
2026-05-04 20:32 45.62495 -73.71135 4614 ft 261 kts 39°
2026-05-04 20:33 45.63834 -73.69372 4315 ft 261 kts 40°
2026-05-04 20:33 45.65000 -73.67407 3961 ft 261 kts 65°
2026-05-04 20:33 45.65468 -73.64986 3990 ft 246 kts 82°
2026-05-04 20:33 45.65292 -73.62695 3978 ft 230 kts 108°
2026-05-04 20:34 45.64821 -73.60524 3991 ft 228 kts 111°
2026-05-04 20:34 45.64329 -73.58392 4009 ft 224 kts 111°
2026-05-04 20:34 45.63838 -73.56270 4012 ft 225 kts 111°
2026-05-04 20:34 45.63339 -73.54147 3904 ft 225 kts 113°
2026-05-04 20:35 45.62415 -73.52454 3741 ft 213 kts 149°
2026-05-04 20:35 45.61182 -73.51292 3664 ft 212 kts 152°
2026-05-04 20:35 45.60580 -73.50881 3579 ft 209 kts 168°